Location: Newark
(52.4787°S, 179.0532°W)
Time: 08:29:52
(UTC+00:00)

Vanguard 1 - Pass Details

Date: 17 November 2019
Orbit: 652 x 3831 km, 34.2° (Epoch: 05 December)

Event Time Altitude Azimuth Distance (km) Brightness Sun altitude
Rises 12:34:42 0° 295° (WNW) 6,176 13.8 -17.6°
Reaches altitude 10° 12:38:28 10° 301° (WNW) 5,530 13.5 -17.5°
Maximum altitude 12:55:14 45° 5° (N) 4,415 12.9 -16.7°
Drops below altitude 10° 13:16:22 10° 67° (ENE) 6,840 14.3 -15.6°
Sets 13:21:44 0° 72° (ENE) 7,688 14.7 -15.3°
